Time,TemperatureF,DewpointF,PressureIn,WindDirection,WindDirectionDegrees,WindSpeedMPH,WindSpeedGustMPH,Humidity,HourlyPrecipIn,Conditions,Clouds,dailyrainin,SoftwareType,DateUTC
2013-12-18 00:01:00,21.5,19.5,29.99,SSW,194,4.0,7.0,92,0.00,,,0.00,WUHU216DAVISVP2,2013-12-18 05:01:00,
2013-12-18 00:06:00,21.5,19.5,29.99,WSW,238,4.0,8.0,92,0.00,,,0.00,WUHU216DAVISVP2,2013-12-18 05:06:00,
2013-12-18 00:11:00,21.3,19.3,29.99,SW,215,6.0,8.0,92,0.00,,,0.00,WUHU216DAVISVP2,2013-12-18 05:11:00,
2013-12-18 00:16:00,21.3,19.3,29.99,SSW,198,5.0,7.0,92,0.00,,,0.00,WUHU216DAVISVP2,2013-12-18 05:16:00,
2013-12-18 00:21:00,21.2,19.2,29.99,SSW,199,3.0,7.0,92,0.00,,,0.00,WUHU216DAVISVP2,2013-12-18 05:21:00,
2013-12-18 00:26:00,21.3,19.3,29.99,SSW,192,3.0,7.0,92,0.00,,,0.00,WUHU216DAVISVP2,2013-12-18 05:26:00,
2013-12-18 00:31:00,21.3,19.5,29.98,WSW,237,7.0,7.0,93,0.00,,,0.00,WUHU216DAVISVP2,2013-12-18 05:31:00,
2013-12-18 00:36:00,21.5,19.7,29.98,SSW,210,4.0,7.0,93,0.00,,,0.00,WUHU216DAVISVP2,2013-12-18 05:36:00,
2013-12-18 00:41:00,21.7,19.9,29.98,SW,227,8.0,8.0,93,0.00,,,0.00,WUHU216DAVISVP2,2013-12-18 05:41:00,
2013-12-18 00:46:00,21.9,20.1,29.98,SW,221,5.0,8.0,93,0.00,,,0.00,WUHU216DAVISVP2,2013-12-18 05:46:00,
2013-12-18 00:51:00,22.1,20.3,29.98,SSW,194,5.0,8.0,93,0.00,,,0.00,WUHU216DAVISVP2,2013-12-18 05:51:00,
2013-12-18 00:56:00,22.2,20.4,29.98,SW,223,2.0,8.0,93,0.00,,,0.00,WUHU216DAVISVP2,2013-12-18 05:56:00,
2013-12-18 01:01:00,22.2,20.4,29.98,SSW,211,4.0,9.0,93,0.00,,,0.00,WUHU216DAVISVP2,2013-12-18 06:01:00,
2013-12-18 01:06:00,22.2,20.4,29.98,SW,235,7.0,9.0,93,0.00,,,0.00,WUHU216DAVISVP2,2013-12-18 06:06:00,
2013-12-18 01:11:00,22.2,20.4,29.98,SSW,207,3.0,8.0,93,0.00,,,0.00,WUHU216DAVISVP2,2013-12-18 06:11:00,
2013-12-18 01:16:00,22.2,20.4,29.98,SSW,203,5.0,8.0,93,0.00,,,0.00,WUHU216DAVISVP2,2013-12-18 06:16:00,
2013-12-18 01:21:00,22.2,20.4,29.98,SSW,208,1.0,8.0,93,0.00,,,0.00,WUHU216DAVISVP2,2013-12-18 06:21:00,
2013-12-18 01:26:00,22.2,20.4,29.98,WSW,250,5.0,8.0,93,0.00,,,0.00,WUHU216DAVISVP2,2013-12-18 06:26:00,
2013-12-18 01:31:00,22.3,20.5,29.98,SSW,209,1.0,7.0,93,0.00,,,0.00,WUHU216DAVISVP2,2013-12-18 06:31:00,
2013-12-18 01:36:00,22.4,20.6,29.99,SW,229,0.0,6.0,93,0.00,,,0.00,WUHU216DAVISVP2,2013-12-18 06:36:00,
2013-12-18 01:41:00,22.5,20.7,29.99,SW,218,1.0,6.0,93,0.00,,,0.00,WUHU216DAVISVP2,2013-12-18 06:41:00,
2013-12-18 01:46:00,22.6,20.8,29.99,SW,229,1.0,5.0,93,0.00,,,0.00,WUHU216DAVISVP2,2013-12-18 06:46:00,
2013-12-18 01:51:00,22.7,20.9,29.99,SW,226,1.0,5.0,93,0.00,,,0.00,WUHU216DAVISVP2,2013-12-18 06:51:00,
2013-12-18 01:56:00,22.9,21.1,29.99,WSW,240,1.0,5.0,93,0.00,,,0.00,WUHU216DAVISVP2,2013-12-18 06:56:00,
2013-12-18 02:01:00,23.1,21.3,29.99,SW,227,1.0,5.0,93,0.00,,,0.00,WUHU216DAVISVP2,2013-12-18 07:01:00,
2013-12-18 02:06:00,23.3,21.5,29.99,SSW,195,2.0,5.0,93,0.00,,,0.00,WUHU216DAVISVP2,2013-12-18 07:06:00,
2013-12-18 02:11:00,23.5,21.7,29.99,SSW,199,1.0,7.0,93,0.00,,,0.00,WUHU216DAVISVP2,2013-12-18 07:11:00,
2013-12-18 02:16:00,23.8,22.0,29.99,SW,226,0.0,7.0,93,0.00,,,0.00,WUHU216DAVISVP2,2013-12-18 07:16:00,
2013-12-18 02:21:00,24.0,22.2,29.99,SSW,209,1.0,7.0,93,0.00,,,0.00,WUHU216DAVISVP2,2013-12-18 07:21:00,
2013-12-18 02:26:00,24.2,22.4,29.99,SSW,210,2.0,8.0,93,0.00,,,0.00,WUHU216DAVISVP2,2013-12-18 07:26:00,
2013-12-18 02:31:00,24.4,22.4,30.00,SSW,213,2.0,8.0,92,0.00,,,0.00,WUHU216DAVISVP2,2013-12-18 07:31:00,
2013-12-18 02:36:00,24.5,22.5,30.00,SW,220,2.0,5.0,92,0.00,,,0.00,WUHU216DAVISVP2,2013-12-18 07:36:00,
2013-12-18 02:41:00,24.7,22.7,30.00,WSW,248,1.0,7.0,92,0.00,,,0.00,WUHU216DAVISVP2,2013-12-18 07:41:00,
2013-12-18 02:46:00,24.8,22.5,30.00,SW,226,1.0,7.0,91,0.00,,,0.00,WUHU216DAVISVP2,2013-12-18 07:46:00,
2013-12-18 02:51:00,24.9,22.6,30.00,SW,218,2.0,7.0,91,0.00,,,0.00,WUHU216DAVISVP2,2013-12-18 07:51:00,
2013-12-18 02:56:00,25.0,22.7,30.00,SSW,207,0.0,6.0,91,0.00,,,0.00,WUHU216DAVISVP2,2013-12-18 07:56:00,
2013-12-18 03:01:00,25.0,22.4,30.01,WSW,252,5.0,5.0,90,0.00,,,0.00,WUHU216DAVISVP2,2013-12-18 08:01:00,
2013-12-18 03:06:00,25.1,22.5,30.01,SW,221,2.0,7.0,90,0.00,,,0.00,WUHU216DAVISVP2,2013-12-18 08:06:00,
2013-12-18 03:11:00,25.0,22.4,30.01,West,262,1.0,7.0,90,0.00,,,0.00,WUHU216DAVISVP2,2013-12-18 08:11:00,
2013-12-18 03:16:00,25.0,22.4,30.01,SSW,193,2.0,7.0,90,0.00,,,0.00,WUHU216DAVISVP2,2013-12-18 08:16:00,
2013-12-18 03:21:00,24.8,22.0,30.01,South,180,1.0,6.0,89,0.00,,,0.00,WUHU216DAVISVP2,2013-12-18 08:21:00,
2013-12-18 03:26:00,24.3,21.5,30.01,SW,215,5.0,7.0,89,0.00,,,0.00,WUHU216DAVISVP2,2013-12-18 08:26:00,
2013-12-18 03:31:00,24.0,21.2,30.01,SSW,202,4.0,7.0,89,0.00,,,0.00,WUHU216DAVISVP2,2013-12-18 08:31:00,
2013-12-18 03:36:00,23.8,21.0,30.01,SSW,198,2.0,7.0,89,0.00,,,0.00,WUHU216DAVISVP2,2013-12-18 08:36:00,
2013-12-18 03:41:00,23.6,20.8,30.02,SSW,192,2.0,8.0,89,0.00,,,0.00,WUHU216DAVISVP2,2013-12-18 08:41:00,
2013-12-18 03:46:00,23.4,20.6,30.01,SSW,193,5.0,8.0,89,0.00,,,0.00,WUHU216DAVISVP2,2013-12-18 08:46:00,
2013-12-18 03:51:00,23.2,20.4,30.01,SSW,213,5.0,8.0,89,0.00,,,0.00,WUHU216DAVISVP2,2013-12-18 08:51:00,
2013-12-18 03:56:00,22.9,20.1,30.01,SSW,205,5.0,8.0,89,0.00,,,0.00,WUHU216DAVISVP2,2013-12-18 08:56:00,
2013-12-18 04:01:00,22.6,19.5,30.01,SW,215,1.0,8.0,88,0.00,,,0.00,WUHU216DAVISVP2,2013-12-18 09:01:00,
2013-12-18 04:06:00,22.2,19.1,30.01,WSW,245,5.0,8.0,88,0.00,,,0.00,WUHU216DAVISVP2,2013-12-18 09:06:00,
2013-12-18 04:11:00,21.9,18.8,30.01,SSW,196,2.0,7.0,88,0.00,,,0.00,WUHU216DAVISVP2,2013-12-18 09:11:00,
2013-12-18 04:16:00,21.5,18.7,30.01,South,188,5.0,8.0,89,0.00,,,0.00,WUHU216DAVISVP2,2013-12-18 09:16:00,
2013-12-18 04:21:00,21.2,18.2,30.01,South,189,7.0,8.0,88,0.00,,,0.00,WUHU216DAVISVP2,2013-12-18 09:21:00,
2013-12-18 04:26:00,20.9,18.1,30.01,SSW,194,6.0,7.0,89,0.00,,,0.00,WUHU216DAVISVP2,2013-12-18 09:26:00,
2013-12-18 04:31:00,20.7,17.9,30.02,SW,218,2.0,6.0,89,0.00,,,0.00,WUHU216DAVISVP2,2013-12-18 09:31:00,
2013-12-18 04:36:00,20.5,17.7,30.01,SW,230,5.0,6.0,89,0.00,,,0.00,WUHU216DAVISVP2,2013-12-18 09:36:00,
2013-12-18 04:41:00,20.3,17.5,30.01,SSW,206,5.0,7.0,89,0.00,,,0.00,WUHU216DAVISVP2,2013-12-18 09:41:00,
2013-12-18 04:46:00,20.1,17.3,30.02,SW,219,6.0,7.0,89,0.00,,,0.00,WUHU216DAVISVP2,2013-12-18 09:46:00,
2013-12-18 04:51:00,20.0,17.2,30.02,WSW,252,4.0,7.0,89,0.00,,,0.00,WUHU216DAVISVP2,2013-12-18 09:51:00,
2013-12-18 04:56:00,19.9,17.1,30.02,SW,231,3.0,6.0,89,0.00,,,0.00,WUHU216DAVISVP2,2013-12-18 09:56:00,
2013-12-18 05:01:00,19.8,17.3,30.02,West,263,4.0,5.0,90,0.00,,,0.00,WUHU216DAVISVP2,2013-12-18 10:01:00,
2013-12-18 05:06:00,19.7,17.2,30.02,WSW,252,4.0,6.0,90,0.00,,,0.00,WUHU216DAVISVP2,2013-12-18 10:06:00,
2013-12-18 05:11:00,19.6,17.1,30.03,SSW,194,4.0,6.0,90,0.00,,,0.00,WUHU216DAVISVP2,2013-12-18 10:11:00,
2013-12-18 05:16:00,19.3,16.8,30.03,SW,228,2.0,7.0,90,0.00,,,0.00,WUHU216DAVISVP2,2013-12-18 10:16:00,
2013-12-18 05:21:00,19.1,16.6,30.03,SSW,209,2.0,7.0,90,0.00,,,0.00,WUHU216DAVISVP2,2013-12-18 10:21:00,
2013-12-18 05:26:00,18.7,16.0,30.03,SSW,196,4.0,7.0,89,0.00,,,0.00,WUHU216DAVISVP2,2013-12-18 10:26:00,
2013-12-18 05:31:00,18.5,15.8,30.03,SW,219,5.0,9.0,89,0.00,,,0.00,WUHU216DAVISVP2,2013-12-18 10:31:00,
2013-12-18 05:36:00,18.2,15.7,30.03,SSW,199,4.0,10.0,90,0.00,,,0.00,WUHU216DAVISVP2,2013-12-18 10:36:00,
2013-12-18 05:41:00,18.1,15.6,30.03,SSW,206,2.0,10.0,90,0.00,,,0.00,WUHU216DAVISVP2,2013-12-18 10:41:00,
2013-12-18 05:46:00,18.0,15.5,30.03,SSW,204,4.0,10.0,90,0.00,,,0.00,WUHU216DAVISVP2,2013-12-18 10:46:00,
2013-12-18 05:51:00,18.1,15.6,30.03,SSW,200,6.0,8.0,90,0.00,,,0.00,WUHU216DAVISVP2,2013-12-18 10:51:00,
2013-12-18 05:56:00,18.1,15.6,30.03,SW,215,2.0,8.0,90,0.00,,,0.00,WUHU216DAVISVP2,2013-12-18 10:56:00,
2013-12-18 06:01:00,18.2,15.7,30.03,SW,214,3.0,8.0,90,0.00,,,0.00,WUHU216DAVISVP2,2013-12-18 11:01:00,
2013-12-18 06:06:00,18.2,15.7,30.04,WSW,240,5.0,8.0,90,0.00,,,0.00,WUHU216DAVISVP2,2013-12-18 11:06:00,
2013-12-18 06:11:00,18.2,15.7,30.03,South,191,4.0,8.0,90,0.00,,,0.00,WUHU216DAVISVP2,2013-12-18 11:11:00,
2013-12-18 06:14:00,18.2,15.7,30.04,SW,222,2.0,8.0,90,0.00,,,0.00,WUHU216DAVISVP2,2013-12-18 11:14:00,
2013-12-18 06:19:00,18.1,15.6,30.03,SW,223,6.0,7.0,90,0.00,,,0.00,WUHU216DAVISVP2,2013-12-18 11:19:00,
2013-12-18 06:24:00,18.1,15.6,30.04,South,188,4.0,6.0,90,0.00,,,0.00,WUHU216DAVISVP2,2013-12-18 11:24:00,
2013-12-18 06:29:00,18.2,15.7,30.04,SW,217,2.0,7.0,90,0.00,,,0.00,WUHU216DAVISVP2,2013-12-18 11:29:00,
2013-12-18 06:34:00,18.2,15.7,30.04,South,182,8.0,8.0,90,0.00,,,0.00,WUHU216DAVISVP2,2013-12-18 11:34:00,
2013-12-18 06:39:00,18.4,15.9,30.04,South,189,5.0,8.0,90,0.00,,,0.00,WUHU216DAVISVP2,2013-12-18 11:39:00,
2013-12-18 06:44:00,18.5,16.0,30.04,SSW,205,3.0,8.0,90,0.00,,,0.00,WUHU216DAVISVP2,2013-12-18 11:44:00,
2013-12-18 06:49:00,18.8,16.3,30.04,SSW,203,2.0,7.0,90,0.00,,,0.00,WUHU216DAVISVP2,2013-12-18 11:49:00,
2013-12-18 06:54:00,19.0,16.5,30.04,SSW,206,9.0,9.0,90,0.00,,,0.00,WUHU216DAVISVP2,2013-12-18 11:54:00,
2013-12-18 06:59:00,19.0,16.2,30.04,SSE,168,7.0,9.0,89,0.00,,,0.00,WUHU216DAVISVP2,2013-12-18 11:59:00,
2013-12-18 07:04:00,19.1,16.3,30.04,SW,222,5.0,9.0,89,0.00,,,0.00,WUHU216DAVISVP2,2013-12-18 12:04:00,
2013-12-18 07:09:00,19.1,16.3,30.05,SW,231,2.0,8.0,89,0.00,,,0.00,WUHU216DAVISVP2,2013-12-18 12:09:00,
2013-12-18 07:14:00,19.1,16.3,30.05,SSW,202,5.0,8.0,89,0.00,,,0.00,WUHU216DAVISVP2,2013-12-18 12:14:00,
2013-12-18 07:19:00,19.3,16.5,30.05,SW,231,6.0,6.0,89,0.00,,,0.00,WUHU216DAVISVP2,2013-12-18 12:19:00,
2013-12-18 07:24:00,19.4,16.6,30.06,SW,222,4.0,7.0,89,0.00,,,0.00,WUHU216DAVISVP2,2013-12-18 12:24:00,
2013-12-18 07:29:00,19.4,16.6,30.06,SW,214,1.0,7.0,89,0.00,,,0.00,WUHU216DAVISVP2,2013-12-18 12:29:00,
2013-12-18 07:34:00,19.4,16.6,30.06,SSW,211,4.0,6.0,89,0.00,,,0.00,WUHU216DAVISVP2,2013-12-18 12:34:00,
2013-12-18 07:39:00,19.5,16.7,30.06,SSW,211,2.0,6.0,89,0.00,,,0.00,WUHU216DAVISVP2,2013-12-18 12:39:00,
2013-12-18 07:44:00,19.5,16.7,30.06,SSW,192,5.0,6.0,89,0.00,,,0.00,WUHU216DAVISVP2,2013-12-18 12:44:00,
2013-12-18 07:49:00,19.7,16.9,30.07,SSW,203,4.0,8.0,89,0.00,,,0.00,WUHU216DAVISVP2,2013-12-18 12:49:00,
2013-12-18 07:54:00,19.9,17.1,30.07,SSW,205,1.0,8.0,89,0.00,,,0.00,WUHU216DAVISVP2,2013-12-18 12:54:00,
2013-12-18 07:59:00,20.1,17.3,30.07,SW,227,4.0,7.0,89,0.00,,,0.00,WUHU216DAVISVP2,2013-12-18 12:59:00,
2013-12-18 08:04:00,20.4,17.6,30.07,SW,232,1.0,9.0,89,0.00,,,0.00,WUHU216DAVISVP2,2013-12-18 13:04:00,
2013-12-18 08:09:00,20.7,17.9,30.07,SSW,211,6.0,9.0,89,0.00,,,0.00,WUHU216DAVISVP2,2013-12-18 13:09:00,
2013-12-18 08:14:00,20.9,18.1,30.07,SW,215,6.0,9.0,89,0.00,,,0.00,WUHU216DAVISVP2,2013-12-18 13:14:00,
2013-12-18 08:19:00,21.1,18.1,30.07,SSW,207,5.0,7.0,88,0.00,,,0.00,WUHU216DAVISVP2,2013-12-18 13:19:00,
2013-12-18 08:24:00,21.3,18.3,30.07,SW,226,4.0,7.0,88,0.00,,,0.00,WUHU216DAVISVP2,2013-12-18 13:24:00,
2013-12-18 08:29:00,21.6,18.6,30.07,WSW,248,6.0,7.0,88,0.00,,,0.00,WUHU216DAVISVP2,2013-12-18 13:29:00,
2013-12-18 08:34:00,21.8,18.8,30.08,SSW,200,3.0,7.0,88,0.00,,,0.00,WUHU216DAVISVP2,2013-12-18 13:34:00,
2013-12-18 08:39:00,22.0,18.9,30.08,SSW,213,2.0,8.0,88,0.00,,,0.00,WUHU216DAVISVP2,2013-12-18 13:39:00,
2013-12-18 08:44:00,22.2,19.1,30.08,West,267,6.0,8.0,88,0.00,,,0.00,WUHU216DAVISVP2,2013-12-18 13:44:00,
2013-12-18 08:49:00,22.4,19.1,30.08,SSW,200,4.0,7.0,87,0.00,,,0.00,WUHU216DAVISVP2,2013-12-18 13:49:00,
2013-12-18 08:54:00,22.6,19.3,30.08,SW,215,4.0,7.0,87,0.00,,,0.00,WUHU216DAVISVP2,2013-12-18 13:54:00,
2013-12-18 08:59:00,22.8,19.5,30.08,WSW,251,0.0,8.0,87,0.00,,,0.00,WUHU216DAVISVP2,2013-12-18 13:59:00,
2013-12-18 09:04:00,22.9,19.6,30.08,SSW,207,1.0,8.0,87,0.00,,,0.00,WUHU216DAVISVP2,2013-12-18 14:04:00,
2013-12-18 09:09:00,23.2,19.9,30.08,SW,217,2.0,8.0,87,0.00,,,0.00,WUHU216DAVISVP2,2013-12-18 14:09:00,
2013-12-18 09:14:00,23.4,20.1,30.09,SW,227,4.0,8.0,87,0.00,,,0.00,WUHU216DAVISVP2,2013-12-18 14:14:00,
2013-12-18 09:19:00,23.7,20.4,30.09,SW,218,8.0,8.0,87,0.00,,,0.00,WUHU216DAVISVP2,2013-12-18 14:19:00,
2013-12-18 09:24:00,23.9,20.3,30.09,SSW,208,2.0,8.0,86,0.00,,,0.00,WUHU216DAVISVP2,2013-12-18 14:24:00,
2013-12-18 09:29:00,24.1,20.5,30.09,SSW,211,6.0,8.0,86,0.00,,,0.00,WUHU216DAVISVP2,2013-12-18 14:29:00,
2013-12-18 09:34:00,24.3,20.7,30.09,SSE,164,2.0,9.0,86,0.00,,,0.00,WUHU216DAVISVP2,2013-12-18 14:34:00,
2013-12-18 09:39:00,24.5,20.6,30.09,SW,228,0.0,9.0,85,0.00,,,0.00,WUHU216DAVISVP2,2013-12-18 14:39:00,
2013-12-18 09:44:00,24.6,20.7,30.09,SSW,193,4.0,8.0,85,0.00,,,0.00,WUHU216DAVISVP2,2013-12-18 14:44:00,
2013-12-18 09:49:00,24.8,20.9,30.10,South,180,3.0,7.0,85,0.00,,,0.00,WUHU216DAVISVP2,2013-12-18 14:49:00,
2013-12-18 09:54:00,25.0,20.8,30.10,WSW,239,4.0,11.0,84,0.00,,,0.00,WUHU216DAVISVP2,2013-12-18 14:54:00,
2013-12-18 09:59:00,25.2,21.0,30.10,West,263,3.0,11.0,84,0.00,,,0.00,WUHU216DAVISVP2,2013-12-18 14:59:00,
2013-12-18 10:04:00,25.3,21.1,30.10,SSW,213,0.0,12.0,84,0.00,,,0.00,WUHU216DAVISVP2,2013-12-18 15:04:00,
2013-12-18 10:09:00,25.4,20.9,30.11,SW,230,6.0,12.0,83,0.00,,,0.00,WUHU216DAVISVP2,2013-12-18 15:09:00,
2013-12-18 10:14:00,25.4,20.9,30.11,SSW,198,5.0,10.0,83,0.00,,,0.00,WUHU216DAVISVP2,2013-12-18 15:14:00,
2013-12-18 10:19:00,25.5,21.0,30.11,South,189,4.0,10.0,83,0.00,,,0.00,WUHU216DAVISVP2,2013-12-18 15:19:00,
2013-12-18 10:24:00,25.6,21.1,30.11,SSW,204,6.0,11.0,83,0.00,,,0.00,WUHU216DAVISVP2,2013-12-18 15:24:00,
2013-12-18 10:29:00,25.7,21.0,30.12,West,281,4.0,11.0,82,0.00,,,0.00,WUHU216DAVISVP2,2013-12-18 15:29:00,
2013-12-18 10:34:00,25.8,21.1,30.12,WSW,242,2.0,10.0,82,0.00,,,0.00,WUHU216DAVISVP2,2013-12-18 15:34:00,
2013-12-18 10:39:00,25.9,21.2,30.12,SW,220,7.0,10.0,82,0.00,,,0.00,WUHU216DAVISVP2,2013-12-18 15:39:00,
2013-12-18 10:44:00,25.9,20.9,30.12,SW,218,5.0,10.0,81,0.00,,,0.00,WUHU216DAVISVP2,2013-12-18 15:44:00,
2013-12-18 10:49:00,25.9,20.9,30.12,SW,223,4.0,11.0,81,0.00,,,0.00,WUHU216DAVISVP2,2013-12-18 15:49:00,
2013-12-18 10:54:00,26.0,21.0,30.11,SSW,205,3.0,11.0,81,0.00,,,0.00,WUHU216DAVISVP2,2013-12-18 15:54:00,
2013-12-18 10:59:00,26.1,21.1,30.12,West,279,8.0,10.0,81,0.00,,,0.00,WUHU216DAVISVP2,2013-12-18 15:59:00,
2013-12-18 11:04:00,26.1,20.8,30.12,SSW,199,7.0,11.0,80,0.00,,,0.00,WUHU216DAVISVP2,2013-12-18 16:04:00,
2013-12-18 11:09:00,26.2,20.9,30.12,SSW,202,5.0,11.0,80,0.00,,,0.00,WUHU216DAVISVP2,2013-12-18 16:09:00,
2013-12-18 11:14:00,26.3,20.7,30.12,SSW,204,3.0,10.0,79,0.00,,,0.00,WUHU216DAVISVP2,2013-12-18 16:14:00,
2013-12-18 11:19:00,26.2,20.6,30.12,SSW,212,6.0,10.0,79,0.00,,,0.00,WUHU216DAVISVP2,2013-12-18 16:19:00,
2013-12-18 11:24:00,26.0,20.4,30.12,SW,225,8.0,9.0,79,0.00,,,0.00,WUHU216DAVISVP2,2013-12-18 16:24:00,
2013-12-18 11:29:00,25.9,20.3,30.12,SSW,202,5.0,10.0,79,0.00,,,0.00,WUHU216DAVISVP2,2013-12-18 16:29:00,
2013-12-18 11:34:00,25.9,20.3,30.12,SW,216,5.0,10.0,79,0.00,,,0.00,WUHU216DAVISVP2,2013-12-18 16:34:00,
2013-12-18 11:39:00,26.0,20.4,30.12,SSW,199,5.0,9.0,79,0.00,,,0.00,WUHU216DAVISVP2,2013-12-18 16:39:00,
2013-12-18 11:44:00,26.0,20.1,30.12,WSW,237,5.0,9.0,78,0.00,,,0.00,WUHU216DAVISVP2,2013-12-18 16:44:00,
2013-12-18 11:49:00,25.9,20.0,30.12,SW,230,4.0,9.0,78,0.00,,,0.00,WUHU216DAVISVP2,2013-12-18 16:49:00,
2013-12-18 11:54:00,26.1,20.2,30.12,SSW,202,4.0,11.0,78,0.00,,,0.00,WUHU216DAVISVP2,2013-12-18 16:54:00,
2013-12-18 11:59:00,26.0,19.8,30.12,SW,229,5.0,13.0,77,0.00,,,0.00,WUHU216DAVISVP2,2013-12-18 16:59:00,
2013-12-18 12:04:00,26.0,20.1,30.12,SW,234,4.0,13.0,78,0.00,,,0.00,WUHU216DAVISVP2,2013-12-18 17:04:00,
2013-12-18 12:09:00,26.4,20.8,30.12,SSW,210,4.0,9.0,79,0.00,,,0.00,WUHU216DAVISVP2,2013-12-18 17:09:00,
2013-12-18 12:14:00,26.8,20.6,30.12,South,186,4.0,6.0,77,0.00,,,0.00,WUHU216DAVISVP2,2013-12-18 17:14:00,
2013-12-18 12:19:00,27.1,20.9,30.12,SSW,208,6.0,9.0,77,0.00,,,0.00,WUHU216DAVISVP2,2013-12-18 17:19:00,
2013-12-18 12:24:00,27.0,20.5,30.11,WSW,240,2.0,9.0,76,0.00,,,0.00,WUHU216DAVISVP2,2013-12-18 17:24:00,
2013-12-18 12:29:00,27.0,20.5,30.11,SSW,205,2.0,9.0,76,0.00,,,0.00,WUHU216DAVISVP2,2013-12-18 17:29:00,
2013-12-18 12:34:00,27.0,20.5,30.11,SSW,206,4.0,8.0,76,0.00,,,0.00,WUHU216DAVISVP2,2013-12-18 17:34:00,
2013-12-18 12:39:00,26.7,20.2,30.10,WSW,244,4.0,9.0,76,0.00,,,0.00,WUHU216DAVISVP2,2013-12-18 17:39:00,
2013-12-18 12:44:00,26.5,20.0,30.10,SW,219,2.0,10.0,76,0.00,,,0.00,WUHU216DAVISVP2,2013-12-18 17:44:00,
2013-12-18 12:49:00,26.2,19.7,30.10,South,182,4.0,12.0,76,0.00,,,0.00,WUHU216DAVISVP2,2013-12-18 17:49:00,
2013-12-18 12:54:00,26.2,20.0,30.10,SW,236,7.0,12.0,77,0.00,,,0.00,WUHU216DAVISVP2,2013-12-18 17:54:00,
2013-12-18 12:59:00,26.2,19.7,30.10,SSE,152,3.0,9.0,76,0.00,,,0.00,WUHU216DAVISVP2,2013-12-18 17:59:00,
2013-12-18 13:04:00,26.3,19.8,30.10,SW,233,4.0,10.0,76,0.00,,,0.00,WUHU216DAVISVP2,2013-12-18 18:04:00,
2013-12-18 13:09:00,26.4,19.9,30.10,SW,234,4.0,10.0,76,0.00,,,0.00,WUHU216DAVISVP2,2013-12-18 18:09:00,
2013-12-18 13:14:00,26.7,20.2,30.10,SSW,195,1.0,11.0,76,0.00,,,0.00,WUHU216DAVISVP2,2013-12-18 18:14:00,
2013-12-18 13:19:00,27.0,20.2,30.09,SW,230,4.0,11.0,75,0.00,,,0.00,WUHU216DAVISVP2,2013-12-18 18:19:00,
2013-12-18 13:24:00,27.1,20.3,30.10,WSW,237,12.0,12.0,75,0.00,,,0.00,WUHU216DAVISVP2,2013-12-18 18:24:00,
2013-12-18 13:29:00,27.0,20.2,30.10,SW,232,5.0,12.0,75,0.00,,,0.00,WUHU216DAVISVP2,2013-12-18 18:29:00,
2013-12-18 13:34:00,26.9,19.8,30.10,SSW,194,12.0,12.0,74,0.00,,,0.00,WUHU216DAVISVP2,2013-12-18 18:34:00,
2013-12-18 13:39:00,26.4,19.6,30.10,SW,219,4.0,12.0,75,0.00,,,0.00,WUHU216DAVISVP2,2013-12-18 18:39:00,
2013-12-18 13:44:00,26.2,19.7,30.10,SSW,202,3.0,12.0,76,0.00,,,0.00,WUHU216DAVISVP2,2013-12-18 18:44:00,
2013-12-18 13:49:00,26.3,19.5,30.09,WSW,240,4.0,10.0,75,0.00,,,0.00,WUHU216DAVISVP2,2013-12-18 18:49:00,
2013-12-18 13:54:00,26.5,19.7,30.09,SSW,202,5.0,11.0,75,0.00,,,0.00,WUHU216DAVISVP2,2013-12-18 18:54:00,
2013-12-18 13:59:00,26.8,20.3,30.08,SSW,196,7.0,11.0,76,0.00,,,0.00,WUHU216DAVISVP2,2013-12-18 18:59:00,
2013-12-18 14:04:00,26.6,19.8,30.08,SW,218,6.0,9.0,75,0.00,,,0.00,WUHU216DAVISVP2,2013-12-18 19:04:00,
2013-12-18 14:09:00,26.1,19.3,30.08,SW,233,6.0,9.0,75,0.00,,,0.00,WUHU216DAVISVP2,2013-12-18 19:09:00,
2013-12-18 14:14:00,25.6,19.1,30.08,South,182,7.0,9.0,76,0.00,,,0.00,WUHU216DAVISVP2,2013-12-18 19:14:00,
2013-12-18 14:19:00,25.4,19.2,30.08,South,188,6.0,10.0,77,0.00,,,0.00,WUHU216DAVISVP2,2013-12-18 19:19:00,
2013-12-18 14:24:00,25.4,19.2,30.08,SW,220,8.0,11.0,77,0.00,,,0.00,WUHU216DAVISVP2,2013-12-18 19:24:00,
2013-12-18 14:29:00,25.3,19.4,30.08,SSW,206,7.0,11.0,78,0.00,,,0.00,WUHU216DAVISVP2,2013-12-18 19:29:00,
2013-12-18 14:34:00,25.3,19.4,30.07,SSW,192,4.0,12.0,78,0.00,,,0.00,WUHU216DAVISVP2,2013-12-18 19:34:00,
2013-12-18 14:39:00,25.3,19.4,30.07,SSW,202,4.0,12.0,78,0.00,,,0.00,WUHU216DAVISVP2,2013-12-18 19:39:00,
2013-12-18 14:44:00,25.3,19.4,30.07,SW,219,4.0,11.0,78,0.00,,,0.00,WUHU216DAVISVP2,2013-12-18 19:44:00,
2013-12-18 14:49:00,25.4,19.5,30.07,SW,217,6.0,11.0,78,0.00,,,0.00,WUHU216DAVISVP2,2013-12-18 19:49:00,
2013-12-18 14:54:00,25.4,19.8,30.07,SW,222,2.0,10.0,79,0.00,,,0.00,WUHU216DAVISVP2,2013-12-18 19:54:00,
2013-12-18 14:59:00,25.4,19.8,30.07,South,191,6.0,9.0,79,0.00,,,0.00,WUHU216DAVISVP2,2013-12-18 19:59:00,
2013-12-18 15:04:00,25.4,19.5,30.08,WSW,254,7.0,10.0,78,0.00,,,0.00,WUHU216DAVISVP2,2013-12-18 20:04:00,
2013-12-18 15:09:00,25.3,19.4,30.07,SSW,200,4.0,10.0,78,0.00,,,0.00,WUHU216DAVISVP2,2013-12-18 20:09:00,
2013-12-18 15:14:00,25.3,19.4,30.07,SW,219,4.0,10.0,78,0.00,,,0.00,WUHU216DAVISVP2,2013-12-18 20:14:00,
2013-12-18 15:19:00,25.2,19.3,30.07,South,190,5.0,11.0,78,0.00,,,0.00,WUHU216DAVISVP2,2013-12-18 20:19:00,
2013-12-18 15:24:00,25.1,19.2,30.07,SW,223,4.0,13.0,78,0.00,,,0.00,WUHU216DAVISVP2,2013-12-18 20:24:00,
2013-12-18 15:29:00,25.3,19.4,30.07,SSW,209,8.0,13.0,78,0.00,,,0.00,WUHU216DAVISVP2,2013-12-18 20:29:00,
2013-12-18 15:34:00,25.5,19.6,30.08,SSW,194,6.0,12.0,78,0.00,,,0.00,WUHU216DAVISVP2,2013-12-18 20:34:00,
2013-12-18 15:39:00,25.3,19.4,30.07,SW,215,4.0,12.0,78,0.00,,,0.00,WUHU216DAVISVP2,2013-12-18 20:39:00,
2013-12-18 15:44:00,25.1,19.2,30.07,SW,216,8.0,12.0,78,0.00,,,0.00,WUHU216DAVISVP2,2013-12-18 20:44:00,
2013-12-18 15:49:00,25.0,19.1,30.07,SSW,211,4.0,11.0,78,0.00,,,0.00,WUHU216DAVISVP2,2013-12-18 20:49:00,
2013-12-18 15:54:00,25.1,19.2,30.07,SW,217,7.0,12.0,78,0.00,,,0.00,WUHU216DAVISVP2,2013-12-18 20:54:00,
2013-12-18 15:59:00,25.2,19.3,30.07,SW,228,8.0,12.0,78,0.00,,,0.00,WUHU216DAVISVP2,2013-12-18 20:59:00,
2013-12-18 16:04:00,25.3,19.4,30.07,SW,221,1.0,9.0,78,0.00,,,0.00,WUHU216DAVISVP2,2013-12-18 21:04:00,
2013-12-18 16:09:00,25.3,19.7,30.06,SSW,192,1.0,8.0,79,0.00,,,0.00,WUHU216DAVISVP2,2013-12-18 21:09:00,
2013-12-18 16:14:00,24.9,19.3,30.06,SW,219,9.0,13.0,79,0.00,,,0.00,WUHU216DAVISVP2,2013-12-18 21:14:00,
2013-12-18 16:19:00,24.6,19.0,30.06,SW,229,8.0,13.0,79,0.00,,,0.00,WUHU216DAVISVP2,2013-12-18 21:19:00,
2013-12-18 16:24:00,24.5,18.9,30.06,SSW,195,0.0,10.0,79,0.00,,,0.00,WUHU216DAVISVP2,2013-12-18 21:24:00,
2013-12-18 16:29:00,24.4,18.8,30.06,SW,214,9.0,9.0,79,0.00,,,0.00,WUHU216DAVISVP2,2013-12-18 21:29:00,
2013-12-18 16:34:00,24.2,18.3,30.05,South,188,2.0,12.0,78,0.00,,,0.00,WUHU216DAVISVP2,2013-12-18 21:34:00,
2013-12-18 16:39:00,24.1,18.5,30.05,SSW,213,5.0,12.0,79,0.00,,,0.00,WUHU216DAVISVP2,2013-12-18 21:39:00,
2013-12-18 16:44:00,23.9,18.1,30.05,South,173,6.0,13.0,78,0.00,,,0.00,WUHU216DAVISVP2,2013-12-18 21:44:00,
2013-12-18 16:49:00,23.8,17.7,30.05,SW,230,7.0,13.0,77,0.00,,,0.00,WUHU216DAVISVP2,2013-12-18 21:49:00,
2013-12-18 16:54:00,23.7,17.6,30.05,SW,225,7.0,13.0,77,0.00,,,0.00,WUHU216DAVISVP2,2013-12-18 21:54:00,
2013-12-18 16:59:00,23.4,17.0,30.04,SSW,211,7.0,12.0,76,0.00,,,0.00,WUHU216DAVISVP2,2013-12-18 21:59:00,
2013-12-18 17:04:00,23.3,16.9,30.04,SW,227,3.0,16.0,76,0.00,,,0.00,WUHU216DAVISVP2,2013-12-18 22:04:00,
2013-12-18 17:09:00,23.3,16.9,30.05,South,176,7.0,16.0,76,0.00,,,0.00,WUHU216DAVISVP2,2013-12-18 22:09:00,
2013-12-18 17:14:00,23.3,16.6,30.05,SSE,153,1.0,12.0,75,0.00,,,0.00,WUHU216DAVISVP2,2013-12-18 22:14:00,
2013-12-18 17:19:00,23.2,16.5,30.04,South,189,1.0,10.0,75,0.00,,,0.00,WUHU216DAVISVP2,2013-12-18 22:19:00,
2013-12-18 17:24:00,23.1,16.4,30.04,SSW,211,4.0,8.0,75,0.00,,,0.00,WUHU216DAVISVP2,2013-12-18 22:24:00,
2013-12-18 17:29:00,23.0,16.3,30.04,SSW,199,1.0,8.0,75,0.00,,,0.00,WUHU216DAVISVP2,2013-12-18 22:29:00,
2013-12-18 17:34:00,22.9,16.8,30.03,South,178,5.0,10.0,77,0.00,,,0.00,WUHU216DAVISVP2,2013-12-18 22:34:00,
2013-12-18 17:39:00,22.6,16.8,30.03,South,191,2.0,10.0,78,0.00,,,0.00,WUHU216DAVISVP2,2013-12-18 22:39:00,
2013-12-18 17:44:00,22.5,16.7,30.03,SSW,200,1.0,10.0,78,0.00,,,0.00,WUHU216DAVISVP2,2013-12-18 22:44:00,
2013-12-18 17:49:00,22.3,16.5,30.02,South,178,1.0,10.0,78,0.00,,,0.00,WUHU216DAVISVP2,2013-12-18 22:49:00,
2013-12-18 17:54:00,22.2,16.4,30.02,SSW,207,5.0,10.0,78,0.00,,,0.00,WUHU216DAVISVP2,2013-12-18 22:54:00,
2013-12-18 17:59:00,22.1,16.6,30.02,South,188,1.0,9.0,79,0.00,,,0.00,WUHU216DAVISVP2,2013-12-18 22:59:00,
2013-12-18 18:04:00,22.0,16.2,30.01,SSW,212,3.0,8.0,78,0.00,,,0.00,WUHU216DAVISVP2,2013-12-18 23:04:00,
2013-12-18 18:09:00,22.0,16.5,30.01,SSE,163,2.0,9.0,79,0.00,,,0.00,WUHU216DAVISVP2,2013-12-18 23:09:00,
2013-12-18 18:14:00,21.8,16.3,30.01,SSW,202,0.0,9.0,79,0.00,,,0.00,WUHU216DAVISVP2,2013-12-18 23:14:00,
2013-12-18 18:19:00,21.7,16.2,30.00,SSW,207,1.0,5.0,79,0.00,,,0.00,WUHU216DAVISVP2,2013-12-18 23:19:00,
2013-12-18 18:24:00,21.5,16.0,30.01,South,181,3.0,5.0,79,0.00,,,0.00,WUHU216DAVISVP2,2013-12-18 23:24:00,
2013-12-18 18:29:00,21.5,16.0,30.00,SSW,210,5.0,6.0,79,0.00,,,0.00,WUHU216DAVISVP2,2013-12-18 23:29:00,
2013-12-18 18:34:00,21.5,16.3,30.00,South,175,2.0,7.0,80,0.00,,,0.00,WUHU216DAVISVP2,2013-12-18 23:34:00,
2013-12-18 18:39:00,21.5,16.3,30.00,South,179,0.0,7.0,80,0.00,,,0.00,WUHU216DAVISVP2,2013-12-18 23:39:00,
2013-12-18 18:44:00,21.5,16.3,30.00,South,187,2.0,9.0,80,0.00,,,0.00,WUHU216DAVISVP2,2013-12-18 23:44:00,
2013-12-18 18:49:00,21.5,16.3,30.00,SSE,164,3.0,9.0,80,0.00,,,0.00,WUHU216DAVISVP2,2013-12-18 23:49:00,
2013-12-18 18:54:00,21.6,16.4,29.99,South,173,4.0,9.0,80,0.00,,,0.00,WUHU216DAVISVP2,2013-12-18 23:54:00,
2013-12-18 18:59:00,21.6,16.4,29.99,South,191,0.0,9.0,80,0.00,,,0.00,WUHU216DAVISVP2,2013-12-18 23:59:00,
2013-12-18 19:04:00,21.7,16.5,29.99,SSW,198,3.0,10.0,80,0.00,,,0.00,WUHU216DAVISVP2,2013-12-19 00:04:00,
2013-12-18 19:09:00,21.8,16.6,29.99,East,97,2.0,10.0,80,0.00,,,0.00,WUHU216DAVISVP2,2013-12-19 00:09:00,
2013-12-18 19:14:00,21.8,16.6,29.99,SSW,209,5.0,7.0,80,0.00,,,0.00,WUHU216DAVISVP2,2013-12-19 00:14:00,
2013-12-18 19:19:00,21.8,16.6,29.99,South,169,0.0,6.0,80,0.00,,,0.00,WUHU216DAVISVP2,2013-12-19 00:19:00,
2013-12-18 19:24:00,21.7,16.5,29.98,SSE,153,0.0,9.0,80,0.00,,,0.00,WUHU216DAVISVP2,2013-12-19 00:24:00,
2013-12-18 19:29:00,21.8,16.9,29.98,SSE,151,4.0,9.0,81,0.00,,,0.00,WUHU216DAVISVP2,2013-12-19 00:29:00,
2013-12-18 19:34:00,21.8,16.6,29.97,SSE,158,3.0,7.0,80,0.00,,,0.00,WUHU216DAVISVP2,2013-12-19 00:34:00,
2013-12-18 19:39:00,21.8,16.6,29.97,South,175,4.0,7.0,80,0.00,,,0.00,WUHU216DAVISVP2,2013-12-19 00:39:00,
2013-12-18 19:44:00,21.8,16.6,29.96,South,171,3.0,10.0,80,0.00,,,0.00,WUHU216DAVISVP2,2013-12-19 00:44:00,
2013-12-18 19:49:00,21.8,16.6,29.96,South,179,1.0,10.0,80,0.00,,,0.00,WUHU216DAVISVP2,2013-12-19 00:49:00,
2013-12-18 19:54:00,21.9,16.7,29.96,South,173,2.0,10.0,80,0.00,,,0.00,WUHU216DAVISVP2,2013-12-19 00:54:00,
2013-12-18 19:59:00,21.8,16.6,29.96,SW,216,3.0,10.0,80,0.00,,,0.00,WUHU216DAVISVP2,2013-12-19 00:59:00,
2013-12-18 20:04:00,21.8,16.6,29.96,SW,223,2.0,6.0,80,0.00,,,0.00,WUHU216DAVISVP2,2013-12-19 01:04:00,
2013-12-18 20:09:00,21.9,16.4,29.95,SSW,200,0.0,6.0,79,0.00,,,0.00,WUHU216DAVISVP2,2013-12-19 01:09:00,
2013-12-18 20:14:00,21.9,16.4,29.95,SSW,206,0.0,6.0,79,0.00,,,0.00,WUHU216DAVISVP2,2013-12-19 01:14:00,
2013-12-18 20:19:00,22.0,16.5,29.95,SSW,207,5.0,6.0,79,0.00,,,0.00,WUHU216DAVISVP2,2013-12-19 01:19:00,
2013-12-18 20:24:00,22.0,16.5,29.95,South,191,5.0,7.0,79,0.00,,,0.00,WUHU216DAVISVP2,2013-12-19 01:24:00,
2013-12-18 20:29:00,22.2,16.7,29.95,SSW,193,2.0,9.0,79,0.00,,,0.00,WUHU216DAVISVP2,2013-12-19 01:29:00,
2013-12-18 20:34:00,22.8,17.0,29.95,SSW,194,7.0,13.0,78,0.00,,,0.00,WUHU216DAVISVP2,2013-12-19 01:34:00,
2013-12-18 20:39:00,23.3,16.9,29.94,SW,217,11.0,13.0,76,0.00,,,0.00,WUHU216DAVISVP2,2013-12-19 01:39:00,
2013-12-18 20:44:00,23.5,17.1,29.94,South,188,1.0,12.0,76,0.00,,,0.00,WUHU216DAVISVP2,2013-12-19 01:44:00,
2013-12-18 20:49:00,23.7,17.0,29.93,SSW,202,9.0,12.0,75,0.00,,,0.00,WUHU216DAVISVP2,2013-12-19 01:49:00,
2013-12-18 20:54:00,23.8,17.1,29.93,South,175,8.0,12.0,75,0.00,,,0.00,WUHU216DAVISVP2,2013-12-19 01:54:00,
2013-12-18 20:59:00,23.8,17.1,29.93,SSW,194,4.0,10.0,75,0.00,,,0.00,WUHU216DAVISVP2,2013-12-19 01:59:00,
2013-12-18 21:04:00,23.9,16.9,29.93,South,169,2.0,13.0,74,0.00,,,0.00,WUHU216DAVISVP2,2013-12-19 02:04:00,
2013-12-18 21:09:00,24.0,17.0,29.93,SSW,212,8.0,13.0,74,0.00,,,0.00,WUHU216DAVISVP2,2013-12-19 02:09:00,
2013-12-18 21:14:00,24.1,17.0,29.93,SSW,199,3.0,11.0,74,0.00,,,0.00,WUHU216DAVISVP2,2013-12-19 02:14:00,
2013-12-18 21:19:00,24.1,17.0,29.92,SW,236,7.0,10.0,74,0.00,,,0.00,WUHU216DAVISVP2,2013-12-19 02:19:00,
2013-12-18 21:24:00,24.1,17.0,29.92,SW,215,1.0,10.0,74,0.00,,,0.00,WUHU216DAVISVP2,2013-12-19 02:24:00,
2013-12-18 21:29:00,24.2,17.1,29.92,SW,232,6.0,10.0,74,0.00,,,0.00,WUHU216DAVISVP2,2013-12-19 02:29:00,
2013-12-18 21:34:00,24.2,17.1,29.92,South,175,4.0,10.0,74,0.00,,,0.00,WUHU216DAVISVP2,2013-12-19 02:34:00,
2013-12-18 21:39:00,24.2,17.1,29.92,SSW,201,6.0,10.0,74,0.00,,,0.00,WUHU216DAVISVP2,2013-12-19 02:39:00,
2013-12-18 21:44:00,24.2,17.1,29.92,South,191,8.0,10.0,74,0.00,,,0.00,WUHU216DAVISVP2,2013-12-19 02:44:00,
2013-12-18 21:49:00,24.1,17.0,29.92,SW,219,4.0,8.0,74,0.00,,,0.00,WUHU216DAVISVP2,2013-12-19 02:49:00,
2013-12-18 21:54:00,24.0,17.0,29.91,SSW,205,1.0,8.0,74,0.00,,,0.00,WUHU216DAVISVP2,2013-12-19 02:54:00,
2013-12-18 21:59:00,24.1,17.0,29.91,SSW,209,4.0,10.0,74,0.00,,,0.00,WUHU216DAVISVP2,2013-12-19 02:59:00,
2013-12-18 22:04:00,24.1,17.0,29.91,SSW,211,3.0,10.0,74,0.00,,,0.00,WUHU216DAVISVP2,2013-12-19 03:04:00,
2013-12-18 22:09:00,24.1,17.0,29.91,South,180,1.0,10.0,74,0.00,,,0.00,WUHU216DAVISVP2,2013-12-19 03:09:00,
2013-12-18 22:14:00,24.0,17.0,29.91,South,184,1.0,10.0,74,0.00,,,0.00,WUHU216DAVISVP2,2013-12-19 03:14:00,
2013-12-18 22:19:00,23.8,16.8,29.91,SSW,200,1.0,5.0,74,0.00,,,0.00,WUHU216DAVISVP2,2013-12-19 03:19:00,
2013-12-18 22:24:00,23.9,17.2,29.91,SSW,194,0.0,7.0,75,0.00,,,0.00,WUHU216DAVISVP2,2013-12-19 03:24:00,
2013-12-18 22:29:00,24.0,17.0,29.91,South,187,0.0,7.0,74,0.00,,,0.00,WUHU216DAVISVP2,2013-12-19 03:29:00,
2013-12-18 22:34:00,24.0,17.0,29.91,SW,223,1.0,6.0,74,0.00,,,0.00,WUHU216DAVISVP2,2013-12-19 03:34:00,
2013-12-18 22:39:00,24.2,17.1,29.90,SSW,200,4.0,7.0,74,0.00,,,0.00,WUHU216DAVISVP2,2013-12-19 03:39:00,
2013-12-18 22:44:00,24.2,17.1,29.91,SSW,207,0.0,7.0,74,0.00,,,0.00,WUHU216DAVISVP2,2013-12-19 03:44:00,
2013-12-18 22:49:00,24.2,17.1,29.90,SW,218,0.0,6.0,74,0.00,,,0.00,WUHU216DAVISVP2,2013-12-19 03:49:00,
2013-12-18 22:54:00,24.3,17.2,29.91,SSW,200,2.0,7.0,74,0.00,,,0.00,WUHU216DAVISVP2,2013-12-19 03:54:00,
2013-12-18 22:59:00,24.5,17.4,29.91,SSW,206,0.0,7.0,74,0.00,,,0.00,WUHU216DAVISVP2,2013-12-19 03:59:00,
2013-12-18 23:04:00,24.5,17.4,29.90,SW,234,1.0,7.0,74,0.00,,,0.00,WUHU216DAVISVP2,2013-12-19 04:04:00,
2013-12-18 23:09:00,24.7,17.6,29.90,WSW,245,5.0,6.0,74,0.00,,,0.00,WUHU216DAVISVP2,2013-12-19 04:09:00,
2013-12-18 23:14:00,24.8,17.7,29.90,SSE,168,1.0,7.0,74,0.00,,,0.00,WUHU216DAVISVP2,2013-12-19 04:14:00,
2013-12-18 23:19:00,24.8,17.7,29.90,SSW,209,4.0,7.0,74,0.00,,,0.00,WUHU216DAVISVP2,2013-12-19 04:19:00,
2013-12-18 23:24:00,24.9,17.8,29.90,SSW,211,3.0,6.0,74,0.00,,,0.00,WUHU216DAVISVP2,2013-12-19 04:24:00,
2013-12-18 23:29:00,24.9,17.8,29.89,SW,214,0.0,5.0,74,0.00,,,0.00,WUHU216DAVISVP2,2013-12-19 04:29:00,
2013-12-18 23:34:00,25.0,17.9,29.89,SSW,209,1.0,6.0,74,0.00,,,0.00,WUHU216DAVISVP2,2013-12-19 04:34:00,
2013-12-18 23:39:00,25.0,17.9,29.89,SSW,202,4.0,6.0,74,0.00,,,0.00,WUHU216DAVISVP2,2013-12-19 04:39:00,
2013-12-18 23:44:00,25.1,18.0,29.89,South,188,2.0,7.0,74,0.00,,,0.00,WUHU216DAVISVP2,2013-12-19 04:44:00,
2013-12-18 23:49:00,25.2,18.1,29.89,SW,219,5.0,7.0,74,0.00,,,0.00,WUHU216DAVISVP2,2013-12-19 04:49:00,
2013-12-18 23:54:00,25.4,18.3,29.89,SSW,209,2.0,7.0,74,0.00,,,0.00,WUHU216DAVISVP2,2013-12-19 04:54:00,
2013-12-18 23:59:00,25.5,18.4,29.89,SSW,194,3.0,7.0,74,0.00,,,0.00,WUHU216DAVISVP2,2013-12-19 04:59:00,